Theta_e
309 308 308 308 309 309 309 309 309 310 310 309 309 309 310 310 313 308 302 308 313 320 319 316 317 317 318 313 311 309 298 296 300 303 305 312 310 314 316 315 320 322 324 331 334
309 308 309 309 309 309 309 309 309 310 310 310 309 309 309 310 306 302 310 314 316 317 311 308 310 312 309 309 308 304 299 299 307 309 306 309 310 312 311 313 317 321 328 333 333
309 309 309 309 309 309 309 309 309 309 310 310 310 309 308 309 299 298 311 313 315 316 311 310 311 310 304 308 306 305 298 304 304 308 307 308 309 311 307 309 315 316 325 329 329
311 310 309 309 309 309 309 309 309 309 309 310 310 309 308 304 284 304 314 311 314 313 310 306 305 301 300 300 306 300 305 305 306 306 306 304 311 307 306 311 314 320 329 329 327
310 310 310 310 310 309 309 309 309 309 309 309 309 309 305 294 295 305 311 309 307 306 305 302 300 300 296 302 303 301 302 305 306 306 306 307 305 306 307 309 311 324 328 328 327
310 310 310 310 310 310 310 310 310 310 310 310 309 309 299 288 303 304 305 305 303 301 302 303 301 304 300 298 301 304 304 304 305 304 306 303 305 304 307 309 313 322 326 328 327
310 310 309 309 310 310 309 310 310 310 309 309 309 305 296 293 304 307 307 304 304 300 298 304 306 302 302 298 305 303 299 302 303 304 303 304 301 302 306 308 312 320 324 327 328
311 310 309 309 309 309 310 309 309 309 309 309 308 303 291 304 306 303 305 303 305 304 303 306 308 305 301 304 301 297 299 293 301 303 304 302 295 304 305 308 311 317 322 325 327
311 310 309 309 309 309 309 308 308 308 307 307 302 299 291 304 299 304 304 299 302 303 304 308 306 300 300 294 291 290 286 291 295 303 300 298 296 301 305 303 309 316 319 322 324
311 310 309 309 309 308 308 308 306 304 303 302 301 292 295 292 298 300 302 303 299 300 301 300 299 294 295 292 283 285 287 290 290 296 299 297 296 301 304 302 303 313 319 320 321
311 310 309 308 308 307 305 301 295 294 295 289 290 289 290 297 300 298 302 300 299 292 291 296 289 286 291 293 294 294 291 289 290 294 296 297 296 299 303 303 300 303 310 316 310
311 310 309 308 306 305 302 294 294 296 286 293 293 292 293 294 289 297 303 294 287 285 294 291 287 293 296 292 293 293 290 288 290 293 292 290 294 300 300 300 297 298 303 309 306
311 309 308 306 304 301 297 296 302 300 286 289 291 291 292 292 290 294 299 294 286 286 290 288 290 296 295 287 291 292 290 288 288 291 293 291 290 294 298 298 297 298 300 305 305
310 309 307 305 299 300 296 300 300 300 281 284 287 292 293 291 290 301 301 295 288 285 287 290 295 293 292 290 293 288 293 292 289 289 284 291 285 293 296 293 295 296 297 297 297
309 308 307 305 300 296 298 301 298 296 272 284 286 296 294 289 292 295 301 296 288 285 284 285 291 291 290 291 293 289 294 292 291 289 288 287 285 288 294 290 294 294 294 294 293
309 308 305 301 302 299 301 298 294 281 272 279 286 285 286 290 292 295 295 298 295 288 287 288 294 294 293 295 294 295 292 290 290 287 281 287 285 283 291 292 294 293 292 293 292
308 305 302 301 296 300 299 293 281 274 282 278 280 284 284 286 288 290 289 288 285 281 282 286 286 293 295 290 293 292 288 280 279 278 280 287 284 284 289 291 293 293 290 290 292
304 302 300 298 299 298 295 284 273 274 277 282 282 283 282 286 285 288 287 284 288 287 283 281 278 288 291 290 288 289 287 282 275 277 279 284 280 285 289 290 291 292 290 289 289
304 302 299 299 298 297 290 279 276 277 280 279 282 280 282 284 285 285 285 285 286 287 281 280 281 290 292 293 292 286 284 287 282 280 280 282 284 289 290 289 290 289 288 287 287
300 298 296 298 297 294 285 278 277 281 281 281 276 280 278 281 283 284 284 285 286 289 290 285 281 289 290 293 292 289 291 282 284 275 275 279 281 284 287 288 288 288 288 286 286
300 291 297 298 296 288 281 277 278 282 282 279 278 278 280 279 282 282 282 284 286 287 290 288 287 285 289 286 285 286 284 285 285 282 278 276 280 289 288 290 289 289 289 288 287
297 285 298 297 285 283 279 277 281 281 284 282 282 281 281 281 281 282 282 284 287 287 285 288 287 281 282 287 289 289 287 286 281 278 281 281 280 291 290 291 291 289 289 289 288
287 290 298 294 282 279 277 278 281 280 281 281 280 283 284 281 279 282 283 287 287 289 286 287 282 278 280 285 288 287 288 288 287 286 280 279 280 291 291 291 291 290 290 288 287
292 284 287 288 286 281 278 277 277 283 282 283 282 284 283 281 282 281 283 287 288 289 289 289 282 279 278 280 286 284 286 287 287 284 281 281 282 286 288 289 290 291 291 289 288
290 281 284 281 282 282 282 280 277 277 283 284 282 281 280 279 280 281 284 286 288 289 287 288 279 280 281 283 285 285 285 285 285 283 283 284 284 287 288 288 290 291 292 289 288
286 284 287 284 284 283 282 279 278 279 280 279 279 281 282 278 278 279 282 284 284 287 284 286 279 280 276 282 283 282 284 284 283 283 284 286 285 292 290 292 291 291 291 290 290
292 292 289 284 283 283 280 279 280 280 282 282 282 281 279 279 282 283 285 285 284 285 282 281 280 280 276 276 280 279 281 284 285 286 285 282 287 288 288 288 289 289 292 291 290
Wind_Speed
8 8 8 8 10 10 10 11 12 13 12 13 14 15 16 17 19 16 19 22 19 15 16 17 19 19 12 6 6 4 7 10 22 26 14 14 18 10 4 5 8 6 6 5 21
8 8 9 10 11 12 11 12 13 14 15 13 14 15 16 15 16 19 29 20 19 17 18 21 22 20 17 11 8 6 8 17 26 22 16 10 15 11 7 13 9 7 5 18 18
8 9 10 11 11 12 13 14 15 15 15 16 15 14 15 11 16 23 19 18 24 22 23 22 22 23 22 11 11 8 9 16 11 10 9 15 17 8 6 14 12 12 14 17 16
10 11 12 12 13 14 14 15 16 17 17 18 16 15 12 11 11 7 12 8 11 22 24 24 26 18 19 21 7 14 17 4 5 6 5 4 15 12 10 11 9 4 19 18 19
11 13 13 14 14 15 16 16 18 18 19 20 19 16 13 13 28 18 13 13 8 12 26 23 27 28 20 23 21 11 9 16 7 2 7 4 12 14 11 14 2 8 17 18 17
12 12 13 15 16 16 17 18 20 20 21 21 20 17 16 24 19 19 11 6 10 9 12 22 19 25 14 15 18 20 21 15 12 7 6 5 11 6 15 7 6 11 16 15 16
14 14 14 15 16 17 18 20 21 22 22 22 21 15 17 28 11 6 7 11 10 10 20 17 27 19 19 14 11 8 14 11 16 15 5 4 14 11 8 7 10 14 12 14 15
13 13 15 15 16 17 18 20 21 22 23 23 21 16 15 15 14 17 13 17 11 14 20 19 24 22 20 5 10 7 12 11 12 20 9 6 9 15 2 10 12 14 14 15 16
13 12 14 14 15 16 18 20 22 23 20 15 14 13 14 2 10 10 14 17 10 16 18 17 22 18 12 15 4 1 3 10 10 18 8 8 4 4 0 4 8 11 12 10 10
15 14 13 12 13 14 17 21 21 11 7 5 3 7 10 9 12 10 17 14 10 9 13 18 14 10 13 13 11 6 6 5 8 5 11 19 8 4 1 7 3 5 6 10 10
14 11 12 10 11 11 12 8 5 5 7 3 14 10 21 14 17 7 12 17 4 6 12 10 8 14 15 19 15 18 13 9 6 5 3 18 19 10 2 6 8 2 2 8 9
17 10 9 8 7 7 6 5 4 6 12 10 14 11 14 7 7 9 6 5 4 8 15 8 14 16 21 3 11 18 18 7 10 6 4 1 7 17 5 5 4 1 8 7 9
14 9 8 5 2 4 4 3 6 4 7 7 5 6 7 4 6 3 3 7 5 4 11 20 16 20 22 8 17 18 17 15 10 9 2 4 5 13 4 2 2 6 11 11 9
11 10 9 4 4 0 2 3 5 3 4 9 6 1 4 5 5 4 4 4 3 9 5 9 10 16 16 12 11 11 14 13 16 11 3 4 4 17 14 7 2 6 10 10 9
8 13 10 8 3 3 5 6 4 4 6 15 7 3 13 5 7 6 4 4 4 2 1 6 21 20 18 16 9 12 19 16 13 7 7 8 7 5 14 9 9 5 9 10 8
14 13 10 3 1 4 6 6 4 4 4 8 8 11 12 7 5 2 1 5 5 5 8 5 8 8 11 14 9 17 20 15 9 5 4 9 6 7 9 6 11 10 6 9 10
17 12 3 2 2 6 4 4 3 3 4 11 9 13 14 6 6 5 4 5 5 3 5 5 3 6 13 23 19 14 11 4 4 3 1 6 6 8 7 4 4 12 10 7 8
18 10 7 5 5 5 3 0 3 3 4 8 9 15 6 11 5 6 4 4 10 8 5 5 3 5 2 8 8 14 4 3 5 7 5 4 4 5 5 4 6 8 10 7 7
12 4 3 7 6 4 2 2 4 3 6 9 10 4 5 5 5 3 2 5 7 8 5 4 4 3 9 7 5 2 4 4 5 2 4 6 5 5 4 6 5 8 7 7 5
3 2 3 9 6 4 2 4 2 3 6 5 7 7 9 12 9 8 3 4 6 7 4 3 4 7 4 9 9 6 4 4 1 6 5 5 5 7 5 5 6 7 8 7 6
1 2 3 7 3 4 3 4 3 2 4 5 6 5 6 7 8 8 6 4 6 9 4 3 5 6 4 4 6 4 1 1 3 4 2 6 6 5 3 2 7 9 9 8 9
2 2 5 6 3 3 3 3 3 4 3 2 3 5 4 7 7 6 6 6 7 5 4 6 3 4 9 3 3 1 7 3 3 2 3 3 5 4 5 6 8 9 9 8 7
2 2 3 4 2 3 2 2 2 4 4 5 3 4 7 5 4 6 5 5 7 7 5 4 4 5 4 4 2 3 1 2 2 2 3 2 6 5 6 8 7 9 9 7 7
2 1 3 4 2 4 4 3 2 1 4 3 5 5 7 2 3 5 5 6 7 7 8 4 5 6 3 7 4 4 5 3 2 1 2 4 12 7 7 8 7 8 8 8 6
4 3 2 3 4 5 1 1 3 2 3 2 2 5 4 4 4 4 3 2 5 10 4 3 5 6 9 6 5 4 5 3 2 2 2 6 12 10 8 7 7 7 8 7 6
3 4 2 3 2 5 3 4 4 3 3 2 4 6 4 3 5 5 8 6 5 6 6 6 4 1 5 8 7 7 5 4 3 3 6 8 8 7 7 7 7 7 5 4 4
2 2 4 1 3 2 2 2 4 2 1 4 4 5 6 4 5 6 2 4 5 4 3 4 3 2 3 4 3 5 2 1 2 2 5 3 4 7 6 5 5 5 5 4 2
Wind_Direction
335 331 327 329 327 323 318 315 315 315 312 317 317 313 309 310 303 280 263 254 253 249 261 272 222 212 202 200 175 132 216 220 216 229 223 229 219 182 282 223 186 141 357 80 141
322 317 314 314 309 307 307 308 308 308 310 306 311 313 310 319 298 278 255 257 252 241 247 247 238 213 210 201 189 215 219 223 228 233 231 203 229 219 201 216 192 147 116 125 146
304 305 301 305 303 306 307 307 306 304 304 306 301 306 311 318 289 259 264 249 236 238 236 237 248 231 219 210 176 191 239 225 273 249 320 241 217 202 239 225 205 186 166 154 158
290 291 291 295 295 299 302 302 303 301 299 296 298 300 309 295 258 70 77 17 319 235 230 232 240 233 218 219 207 187 211 171 207 325 268 247 238 207 232 254 342 165 162 167 167
297 288 284 287 291 293 298 300 298 295 294 292 293 292 291 265 247 266 243 297 265 299 230 221 234 237 223 209 208 205 173 199 180 254 309 321 266 226 194 274 11 164 161 173 179
287 292 293 288 285 288 293 295 292 293 291 291 291 291 273 263 273 266 271 249 231 244 266 235 228 232 262 227 213 205 205 180 178 190 273 284 257 229 205 256 214 181 174 176 184
278 282 286 288 289 288 292 293 292 291 292 292 288 282 268 252 270 256 221 249 230 232 260 262 227 239 223 222 241 207 196 214 178 181 185 299 240 218 98 242 229 189 179 178 179
286 277 278 285 289 289 293 294 294 291 291 290 286 276 258 256 264 267 267 251 226 233 245 261 223 235 229 210 154 213 178 169 174 173 168 86 250 218 109 191 225 201 177 176 167
283 275 277 284 289 292 295 296 294 293 291 281 274 260 267 74 242 288 256 244 235 247 233 235 216 215 224 212 146 332 168 138 155 188 131 150 253 104 317 132 234 216 184 167 147
278 270 268 283 286 295 302 304 295 284 268 248 326 276 242 305 307 302 283 209 219 254 221 203 200 198 210 202 198 142 111 152 121 150 174 187 212 261 84 44 292 254 202 176 151
280 270 261 269 284 303 318 311 289 238 338 258 274 268 287 313 294 242 230 197 190 300 186 191 197 197 193 204 201 198 133 127 57 53 187 201 195 223 349 56 18 356 171 99 82
275 266 244 256 281 313 295 334 28 321 301 268 256 280 261 308 296 253 241 103 165 216 167 168 216 219 176 157 207 137 129 111 95 42 55 134 213 206 143 79 28 358 137 121 90
273 236 209 235 273 256 311 11 321 301 276 287 286 269 297 321 279 178 219 106 38 197 179 183 192 211 146 167 170 154 162 158 129 123 80 147 226 225 160 128 39 73 66 103 117
257 206 186 171 238 59 250 1 314 273 283 355 326 345 308 245 264 37 18 94 81 42 69 238 214 188 153 147 185 143 158 129 138 150 163 171 212 199 169 142 121 70 94 84 87
212 174 179 202 352 252 5 321 307 234 299 338 323 338 320 313 307 8 339 96 76 68 135 194 178 172 176 168 175 129 135 137 140 133 163 188 266 95 138 160 162 104 95 94 74
157 155 138 164 230 28 321 302 246 243 325 335 322 335 351 347 357 282 64 78 128 35 335 45 1 173 157 136 159 124 113 107 106 109 223 169 235 144 173 172 159 130 91 94 92
128 113 93 23 353 332 309 240 270 347 4 343 333 331 327 345 7 342 17 54 21 330 18 40 64 124 144 125 138 152 146 108 94 168 244 149 194 60 93 79 129 152 127 94 95
114 94 81 45 337 313 245 28 339 327 338 327 321 319 349 2 33 354 353 90 55 52 35 348 107 109 189 128 171 168 39 106 137 174 148 145 219 103 75 68 105 101 122 102 71
115 88 76 4 333 286 302 47 29 8 343 332 306 325 349 24 6 303 327 47 23 18 22 333 84 57 142 166 95 132 122 16 99 53 165 171 111 129 127 112 139 137 134 123 103
99 106 55 341 319 278 49 69 83 352 330 332 1 355 350 351 1 1 44 15 4 15 316 218 103 105 54 91 36 43 106 139 179 167 151 182 156 88 156 135 147 144 135 126 108
32 64 32 351 280 37 49 51 10 320 334 354 349 318 326 349 348 349 16 58 8 322 344 17 339 90 119 18 134 108 177 268 60 338 128 154 111 23 33 102 143 131 123 131 135
6 67 8 316 44 32 54 18 338 349 326 324 284 292 306 340 349 351 42 11 340 305 24 19 36 111 48 57 40 28 189 327 329 80 20 354 90 61 76 98 117 116 116 119 122
71 30 50 302 59 81 68 28 323 345 337 334 307 346 327 347 321 8 15 2 343 10 27 3 17 112 115 124 70 87 97 168 44 347 20 306 110 101 105 105 106 120 124 130 131
113 87 12 46 37 111 132 34 1 307 288 305 312 314 311 25 355 326 28 357 347 15 358 67 63 33 99 72 71 127 122 52 41 347 116 28 125 130 121 113 116 116 129 138 149
12 75 343 91 70 94 138 214 357 33 279 302 241 352 316 331 347 7 356 302 10 350 31 72 89 74 68 62 75 108 102 18 61 47 19 139 129 137 115 92 80 96 124 141 157
120 128 174 110 150 102 16 40 5 21 343 349 325 353 8 53 14 336 340 359 35 339 32 6 110 260 57 42 85 96 98 108 64 100 74 90 109 88 101 110 91 82 115 150 172
131 108 288 194 129 111 55 46 343 305 106 3 342 345 34 33 19 345 332 35 53 4 58 39 126 346 65 4 107 103 77 66 111 112 127 155 98 141 127 90 59 45 45 59 82